STARLINK-1823 (46720 NORAD) Tracking and Keplerian Element Data

This shows tracking and keplerian element data for the satellite.

Feedback or suggestion? Click here.




ElementValue
Catalog46720
NameSTARLINK-1823
Epoch Orbit609
Epoch Day328.16667824
Epoch Year2020
RAAN293.7634
Inclination53.0549
Eccentricity0.0001048
Argument of Perigee67.3746
Mean Anonmoly89.8071
Mean Motion15.62860952
Decay Rate-0.00093043
L11 46720U 20073BC 20328.16667824 -.00093043 00000-0 -10177-2 0 9995
L22 46720 53.0549 293.7634 0001048 67.3746 89.8071 15.62860952 6099

Live tracking and technical data element details for STARLINK-1823 (NORAD 46720). STARLINK-1823 can be tracked NOW for your location showing map with azimuth and elevation plus other details from your city location.

Track the satellite on the map from your city or location and see movement details for azimuth, elevation, latitude, longitude, range, height, and movement on the map or in text.







IsCatalogInMostPopularTable: catalog: 46720, numindb: 9
Update: records affected: 1



GetName: 46720 STARLINK-1823

Hit Count: updated at: Tue, 24 Nov 2020 12:04:45 GMT